User: anonymous   Login
Location: St. Malo Provincial Park
(49.3214°N, 96.9305°W)
Time: 13:53:10
(UTC-05:00)
Language:

Iridium 6 - Orbit

View from above orbital plane
View from above orbital plane
View from above satellite
View from above satellite

Ground track
Ground track

The orbit data is extracted from the following two-line orbital elements,

1 24794U 97020C   16241.47512591 -.00000080  00000-0 -35719-4 0  9991
2 24794  86.3923  81.2782 0002037  83.7749 276.3678 14.34218049 11240
Epoch (UTC): 28 August 2016 11:24:10
Eccentricity: 0.0002037
inclination: 86.3923°
perigee height: 776 km
apogee height: 779 km
right ascension of ascending node: 81.2782°
argument of perigee: 83.7749°
revolutions per day: 14.34218049
mean anomaly at epoch: 276.3678°
orbit number at epoch: 1124

The dashed part of the orbit path shows where the satellite is in the earth's shadow,  

DLR